Theta_e
309 309 309 309 309 309 309 309 310 310 311 312 312 313 314 314 315 316 316 315 314 312 312 312 313 313 317 318 315 315 310 313 316 316 316 317 316 317 317 316 316 315 316 315 313
309 309 309 309 309 309 309 309 310 310 311 312 312 313 314 316 317 317 317 316 315 313 312 314 316 315 317 318 319 316 311 316 315 315 315 317 317 317 316 316 314 313 313 313 313
310 310 310 310 309 309 309 309 310 310 311 312 313 314 315 316 318 318 314 312 313 313 312 313 315 315 316 317 318 317 313 314 316 317 317 317 317 317 316 314 315 315 313 312 313
310 310 310 310 310 309 309 309 309 310 311 312 312 314 316 317 320 318 312 311 312 312 312 312 315 315 315 316 318 315 315 316 317 317 318 316 317 317 317 315 316 316 313 313 312
310 310 310 310 310 310 309 309 309 309 310 311 312 313 316 318 319 319 318 312 311 311 313 315 315 315 315 316 317 316 316 316 317 317 317 317 317 316 315 315 315 314 313 313 313
311 310 310 310 310 310 310 309 309 309 310 311 312 313 316 318 318 319 317 317 312 312 314 315 315 315 315 316 315 316 316 317 317 316 316 316 316 316 315 315 314 313 312 312 312
309 310 310 310 310 309 310 310 309 309 309 310 311 313 315 315 317 319 318 317 316 312 314 314 315 314 316 316 316 316 314 314 315 316 315 315 313 313 315 314 313 312 312 311 311
308 308 309 309 309 309 309 310 309 308 308 310 311 313 314 316 318 319 319 317 316 313 314 315 313 315 316 316 315 315 314 315 315 314 314 314 313 314 314 313 312 311 311 311 310
314 308 308 308 309 309 309 309 309 308 308 309 311 314 315 316 317 318 318 317 316 315 313 313 313 315 314 312 312 314 314 314 316 313 312 312 313 312 312 312 312 311 311 310 309
323 319 310 309 308 308 309 309 309 309 308 309 312 314 314 316 317 317 316 316 315 314 313 313 314 311 311 310 314 315 315 316 316 314 313 312 311 312 312 312 312 311 310 310 310
324 324 323 316 308 309 309 309 311 315 311 310 313 315 317 315 316 315 316 315 315 314 312 314 311 312 312 311 313 315 316 316 315 314 313 312 312 311 313 312 311 311 311 310 310
324 323 323 323 316 308 310 309 313 316 316 314 314 316 317 317 314 315 315 315 314 313 313 313 313 313 313 313 314 314 314 314 314 313 312 312 312 312 311 311 312 312 312 311 309
324 324 322 323 322 309 309 309 311 315 316 313 310 314 316 316 316 315 314 314 313 313 312 313 315 315 314 315 316 315 315 314 315 313 312 312 312 312 312 312 313 312 313 311 311
322 323 323 322 319 317 310 308 309 313 310 312 315 316 315 316 314 316 315 315 313 313 313 313 314 315 314 315 314 315 314 315 315 315 315 312 316 314 313 312 309 312 311 312 310
322 322 322 321 319 318 318 311 310 316 307 310 317 316 316 315 313 313 314 314 312 313 314 314 314 314 315 315 313 315 314 315 314 314 315 314 314 314 314 315 315 312 310 311 311
318 320 320 320 319 320 317 311 316 319 311 315 314 313 313 315 311 310 312 312 313 312 312 313 313 312 313 310 313 311 313 313 313 313 315 315 315 316 317 316 316 314 311 311 310
313 318 319 319 318 317 317 313 310 315 312 314 315 313 315 315 310 310 309 310 313 314 313 313 312 312 312 312 312 313 313 316 317 315 319 314 315 318 315 314 313 312 310 310 310
309 312 317 317 318 317 317 311 315 314 313 314 315 314 315 314 312 310 310 312 310 312 313 316 316 312 310 312 313 312 314 316 319 318 317 311 315 316 314 315 312 313 314 310 307
307 309 312 317 316 317 317 311 316 315 313 314 315 316 316 315 312 311 310 313 312 311 316 315 315 311 310 313 314 312 315 315 317 302 310 315 313 312 309 308 309 310 309 307 306
306 309 312 312 317 316 318 315 312 313 312 313 316 315 316 315 313 311 311 311 313 312 313 316 320 311 309 312 312 313 312 315 312 314 315 316 316 318 313 310 306 306 306 305 304
306 309 310 310 314 317 319 314 314 313 314 315 314 315 316 315 313 312 313 312 312 311 312 315 318 312 309 311 313 313 313 314 315 313 317 317 318 312 314 311 307 306 307 307 305
305 309 309 312 317 317 317 317 314 314 315 315 314 315 313 315 315 312 313 314 314 312 312 314 316 310 312 309 309 312 314 312 317 315 311 313 320 309 311 309 309 308 307 307 306
306 307 308 312 315 316 316 317 315 316 315 316 317 316 315 316 317 315 313 314 315 312 313 315 317 318 315 312 309 311 311 314 313 307 316 315 319 307 308 310 310 308 307 306 305
305 307 308 309 311 313 315 317 317 316 316 315 316 316 317 319 317 318 315 313 315 314 314 315 316 319 321 320 313 311 311 311 314 316 315 317 318 312 310 310 307 307 308 307 305
304 305 307 311 309 310 311 315 317 316 315 315 316 317 317 319 319 318 317 313 312 313 314 316 318 316 318 316 313 312 311 312 313 314 316 317 316 316 313 308 308 311 307 306 304
303 304 306 306 309 311 310 310 311 312 316 317 316 317 317 319 318 319 317 316 314 310 314 313 316 316 318 316 315 316 312 312 313 313 314 315 315 312 314 313 309 311 309 307 306
301 303 304 305 305 307 310 311 313 313 313 314 315 316 316 317 318 317 317 317 314 311 312 313 315 315 320 315 315 318 317 316 314 312 312 314 314 311 312 311 309 309 309 308 309
Wind_Speed
5 4 3 2 1 1 1 1 2 3 3 4 5 6 6 6 6 5 3 2 3 1 1 2 5 6 7 6 5 2 4 2 5 5 5 13 5 3 8 10 5 5 7 11 13
5 4 2 1 1 1 2 2 2 3 4 5 5 6 6 6 6 4 3 4 3 2 3 6 5 4 3 3 3 4 3 1 2 4 5 10 10 10 5 8 5 10 11 13 14
5 4 3 3 2 2 3 3 4 5 5 5 6 6 6 6 3 3 4 3 1 3 3 4 4 4 2 1 2 2 3 2 4 5 6 9 6 3 8 2 7 12 15 13 15
8 7 6 5 5 5 5 5 5 5 6 6 6 6 6 5 2 3 4 3 2 4 5 7 6 2 1 2 2 3 1 3 2 2 4 4 5 3 4 6 6 15 14 14 14
11 10 9 8 7 7 7 7 7 6 7 7 8 6 5 2 2 2 2 2 4 7 9 6 2 1 2 3 2 1 1 1 2 1 2 1 3 3 5 13 13 14 14 14 14
14 13 12 11 11 10 9 9 9 8 8 8 8 7 4 3 3 3 2 3 3 6 6 6 3 2 1 3 3 1 2 3 5 5 4 3 3 2 8 16 15 15 15 14 13
17 16 15 14 13 13 12 11 10 10 9 8 8 7 8 8 6 4 3 4 6 7 6 7 4 2 1 2 1 0 3 5 8 8 3 6 5 10 14 19 17 16 16 15 14
17 18 16 16 16 15 14 13 12 11 10 9 7 7 6 8 10 10 9 8 7 9 8 5 5 3 1 2 0 1 2 2 3 11 5 6 8 4 18 23 19 18 18 16 16
12 16 18 17 17 17 16 14 13 12 11 9 7 4 6 8 12 12 10 8 9 8 7 5 6 3 3 4 4 2 3 6 5 9 5 4 6 3 19 19 19 21 20 19 19
11 10 15 19 18 18 16 14 13 13 12 10 11 5 11 7 9 8 11 9 6 7 6 5 4 3 2 4 5 6 4 5 5 7 3 5 10 4 16 19 22 24 23 23 23
17 13 14 17 20 18 16 12 9 6 13 11 6 5 5 11 8 9 14 13 8 6 5 5 4 7 12 9 6 3 3 4 5 4 5 8 8 10 23 22 22 27 30 30 28
23 25 22 21 20 20 15 8 7 3 9 16 21 19 12 10 7 12 18 12 8 6 6 3 8 10 7 7 8 8 7 8 5 4 5 6 11 9 10 21 32 36 38 37 32
23 23 26 21 19 20 18 16 11 8 6 11 25 28 26 27 14 21 23 12 5 7 9 8 7 7 8 5 6 6 6 5 8 1 3 4 7 8 9 25 32 38 40 40 42
29 24 27 21 15 16 21 16 14 6 3 6 9 14 24 20 10 23 27 13 7 12 6 9 13 4 6 7 8 7 6 6 6 1 5 4 8 6 6 10 11 36 38 42 44
22 22 25 26 20 16 12 12 13 8 4 5 4 6 16 18 18 13 32 14 9 9 7 9 8 8 14 9 9 7 2 3 3 3 1 4 5 6 8 11 16 24 32 42 46
20 21 22 30 30 34 15 13 14 4 11 4 4 5 8 7 2 8 14 7 6 4 3 5 3 6 8 2 5 7 5 6 5 3 4 11 9 5 9 12 12 15 30 41 44
20 20 21 31 38 22 24 29 3 5 6 6 5 6 5 7 3 5 7 9 10 6 9 2 4 3 5 5 5 4 7 2 3 1 8 6 9 16 7 8 9 12 27 39 44
16 20 22 29 33 30 26 6 6 13 11 3 5 4 5 6 4 6 8 10 9 3 4 11 7 13 7 9 8 8 9 6 7 5 5 1 7 6 12 19 17 15 26 39 41
16 17 26 29 32 37 23 7 8 8 9 7 4 4 5 3 6 5 6 9 12 17 12 8 7 3 2 5 13 6 8 4 2 2 1 6 8 8 6 8 5 11 28 39 43
15 13 28 27 25 35 16 13 7 7 7 12 17 8 11 11 7 9 10 6 6 19 9 6 2 3 2 6 2 7 5 3 1 3 6 5 6 10 5 13 7 9 18 27 36
13 7 16 16 23 25 13 9 14 7 13 3 13 7 7 8 9 7 7 3 12 13 27 6 4 0 5 7 13 5 5 4 4 5 5 5 8 6 11 11 13 15 30 35 39
11 4 10 17 17 6 12 9 11 8 21 8 10 12 14 9 11 13 15 10 19 20 17 13 4 4 8 4 5 2 7 7 6 7 5 2 21 5 3 3 13 21 30 34 36
9 16 13 19 10 15 6 10 15 11 15 7 13 12 17 13 6 15 9 12 17 17 13 10 5 2 5 4 3 7 8 17 1 3 13 5 17 3 1 3 11 19 25 32 34
9 3 13 24 28 15 16 19 20 21 17 21 15 16 11 7 15 10 10 9 24 22 22 20 6 14 20 7 7 8 12 14 18 9 9 24 26 3 3 6 7 16 23 30 35
14 7 8 5 11 16 18 6 21 13 15 27 16 19 20 19 19 25 25 2 3 18 17 14 12 9 19 4 6 7 13 20 23 31 14 29 25 19 14 12 18 19 20 27 34
7 8 10 15 10 7 15 19 20 19 9 11 21 24 23 22 23 23 22 16 9 4 14 6 12 12 19 15 10 7 12 24 26 26 26 29 33 7 16 19 17 28 30 34 38
23 19 9 8 7 7 6 8 6 6 10 20 14 18 24 31 36 34 23 12 3 7 11 12 11 7 19 11 7 8 36 21 19 21 22 25 37 9 17 15 19 27 33 40 42
Wind_Direction
163 159 155 145 127 106 76 40 14 2 358 353 353 352 346 348 347 343 338 330 321 251 152 78 57 49 58 31 40 44 59 346 322 143 173 157 126 92 106 133 99 94 142 146 156
180 182 185 213 320 343 341 342 340 340 341 342 343 342 342 345 339 330 314 306 275 240 172 135 78 41 62 37 48 72 90 313 349 342 155 160 140 158 133 139 103 112 127 144 159
232 228 220 242 275 302 314 321 322 326 330 330 334 338 343 346 21 31 359 332 249 198 188 148 115 102 61 43 39 37 150 307 12 43 117 142 118 123 150 184 193 181 160 160 170
254 263 265 270 279 290 298 302 305 312 318 320 326 334 341 343 140 35 25 42 109 150 147 117 110 73 117 115 80 48 98 80 356 28 84 107 138 161 188 159 162 170 165 174 174
251 257 267 274 280 285 292 297 299 303 308 315 322 331 339 331 251 293 326 59 105 126 125 110 78 339 79 112 107 122 229 110 172 195 120 140 147 187 172 166 166 168 179 185 187
254 255 260 269 277 282 285 290 295 299 305 309 317 322 315 271 253 275 265 230 187 159 145 153 108 67 19 95 125 250 324 273 214 210 213 187 236 224 206 190 185 193 195 196 200
254 255 259 262 269 275 282 285 291 294 299 302 310 311 290 262 246 245 262 234 216 206 180 195 196 178 102 104 133 292 334 303 233 199 215 199 287 230 222 194 192 194 201 205 204
263 258 254 259 262 269 275 282 288 291 291 292 297 300 265 255 252 250 246 230 213 205 214 214 200 166 190 132 41 170 72 325 258 169 191 151 262 282 203 188 187 200 209 211 212
273 268 263 257 260 263 269 276 283 285 284 284 285 267 261 237 240 239 230 213 208 201 203 193 169 146 148 95 10 321 221 213 299 176 131 164 263 200 180 195 195 204 214 214 211
274 283 279 265 259 261 266 272 276 278 273 270 246 264 233 217 216 214 199 194 187 175 155 163 157 100 46 103 221 210 218 250 225 219 148 184 258 226 203 207 213 209 212 214 217
266 276 288 284 267 257 262 271 278 263 227 216 190 196 174 207 209 206 184 171 158 161 159 182 123 203 202 196 205 225 214 243 261 230 145 217 249 239 227 220 220 215 211 216 217
263 266 276 270 269 253 245 224 225 255 292 247 239 233 227 215 187 187 173 173 168 186 138 76 230 226 206 210 225 248 260 268 285 205 166 258 248 254 207 223 222 219 218 219 212
252 264 258 261 262 248 237 228 231 260 268 261 241 231 222 224 210 197 181 182 171 167 190 175 214 206 191 228 196 226 205 233 227 243 267 285 270 248 241 232 232 232 231 222 216
243 254 238 237 250 247 241 218 217 220 271 257 212 224 204 198 227 216 203 177 188 193 191 224 227 186 166 217 176 238 211 219 241 160 245 152 284 250 242 243 216 233 223 223 213
250 242 247 226 240 237 246 210 190 182 273 234 160 167 182 172 142 182 191 190 171 184 151 229 181 189 222 213 168 228 158 191 213 197 331 280 290 262 217 248 248 242 221 215 214
250 246 244 238 223 237 227 177 162 215 231 206 126 147 137 192 117 129 171 167 155 171 263 209 162 161 195 85 161 153 78 40 39 69 259 225 216 199 239 234 257 243 221 209 206
254 243 237 238 224 206 197 154 115 196 317 200 157 164 178 175 128 158 161 178 171 163 219 181 202 173 150 98 21 121 103 304 318 307 245 217 232 246 247 248 228 227 205 202 201
264 245 232 240 237 204 170 139 188 204 200 114 131 87 188 142 189 171 143 193 246 198 133 196 246 172 193 184 170 190 162 167 221 216 261 57 238 250 225 247 262 251 223 195 197
273 259 240 230 229 223 183 210 216 191 173 133 82 129 213 148 140 147 219 224 202 194 192 179 247 107 154 155 155 201 208 186 10 59 346 223 276 300 243 271 281 203 191 192 198
273 263 253 238 226 204 216 219 240 212 141 186 202 161 181 184 158 174 179 206 213 197 213 203 205 20 355 94 38 155 162 82 58 221 252 258 252 234 213 238 218 211 186 191 197
265 255 258 238 218 209 223 201 233 224 247 163 212 197 194 178 177 206 214 260 200 189 197 188 158 296 133 208 174 156 185 190 147 167 214 277 256 204 217 221 207 208 200 199 203
242 237 230 191 201 231 218 211 199 189 225 251 216 224 225 195 186 207 211 208 194 165 194 201 131 165 203 270 258 216 180 164 176 217 235 202 262 176 130 266 207 213 208 212 212
237 241 238 212 222 225 225 221 226 206 215 198 232 219 225 234 218 229 211 203 191 171 172 172 206 101 317 347 325 205 214 214 246 61 228 196 263 357 65 199 218 215 210 208 207
212 250 214 221 243 227 236 235 226 213 229 221 240 249 243 241 232 243 228 208 208 193 191 168 171 205 231 231 152 197 197 205 205 229 218 235 257 172 198 228 211 218 213 210 210
211 232 231 202 229 233 247 243 225 234 214 206 236 237 235 232 232 241 238 221 258 197 183 169 212 200 237 192 159 179 199 204 207 225 210 252 241 239 233 219 219 226 211 207 212
233 203 217 254 272 228 236 248 247 256 221 213 224 224 230 244 223 235 232 215 198 193 196 181 228 209 243 235 219 214 212 216 219 232 236 250 260 127 235 243 213 227 216 210 216
246 230 221 241 239 238 238 242 244 173 227 232 238 239 236 229 235 244 241 246 140 167 192 172 197 176 241 207 226 263 238 220 224 229 225 235 244 197 244 242 231 232 223 219 223